Weather Roundup
Issued by NWS

Home | Current Version | Previous Version | Text Only | Print | Product List | Glossary On
Versions: 1 2 3 4 5 6 7 8 9 10 11 12 13 14 15 16 17 18 19 20 21 22 23 24 25 26 27 28 29 30 31 32 33 34 35 36 37 38 39 40 41 42 43 44 45 46 47 48 49 50
000
NZUS93 KARX 010710
HRRWXR

CURRENT HOURLY OBSERVATIONS ACROSS
MUCH OF THE UPPER MISSISSIPPI VALLEY
NATIONAL WEATHER SERVICE LA CROSSE WI
200 AM CDT WED JUL 01 2015


...SOUTHEAST MINNESOTA...


CITY           SKY/WX    TMP DP  RH WIND       PRES   REMARKS
ROCHESTER      PTCLDY    57  52  83 E8        29.97S
ROCHESTER/MAYO FAIR      60  52  75 E6        29.96S
WINONA         PTCLDY    59  50  72 CALM      29.96S HAZE
AUSTIN         PTCLDY    57  54  88 E3        29.96R
ALBERT LEA     PTCLDY    63  55  77 E7        29.96R
DODGE CENTER   PTCLDY    59  55  88 E3        29.97R
PRESTON        PTCLDY    56  51  83 CALM      29.98R
OWATONNA       PTCLDY    61  54  77 E8        29.97R
FARIBAULT      MOCLDY    61  52  72 NE5       29.97R
$$

...ELSEWHERE IN MINNESOTA...


CITY           SKY/WX    TMP DP  RH WIND       PRES   REMARKS
MINNEAPOLIS    CLOUDY    62  51  67 E8        29.96S
INTNL FALLS    PTCLDY    47  45  93 CALM      29.97S
DULUTH         CLEAR     49  46  90 E6        29.99S
RED WING       PTCLDY    57  52  82 CALM      29.96S
REDWOOD FALLS  PTCLDY    65  58  78 E8        29.94R
MANKATO        MOCLDY    64  54  68 E9        29.95S
WORTHINGTON    PTCLDY    61  55  82 E6        29.94S
FAIRMONT       CLEAR     61  54  77 E5        29.94R
$$

...SOUTHWEST WISCONSIN...


CITY           SKY/WX    TMP DP  RH WIND       PRES   REMARKS
LA CROSSE      CLEAR     59  51  75 CALM      29.95R
PRAIRIE DU CHI CLEAR     57  55  92 CALM      29.95R
BOSCOBEL       CLEAR     53  51  93 CALM      29.95R FOG
LONE ROCK      PTCLDY    57  53  86 VRB3      29.94R
PLATTEVILLE    PTCLDY    56  55  94 N5        29.93S
FORT MC COY    CLEAR     46  45  96 CALM      29.97R
CAMP DOUGLAS   CLEAR     43  43 100 W5        29.96R FOG
VIROQUA        FAIR      55  52  89 NE6       29.96R
WIS DELLS      PTCLDY    57  53  84 NE6       29.94S
$$

...ELSEWHERE IN WISCONSIN...


CITY           SKY/WX    TMP DP  RH WIND       PRES   REMARKS
MILWAUKEE      CLOUDY    53  49  86 NE6       29.93F
MADISON        CLOUDY    60  55  83 CALM      29.92R
GREEN BAY      PTCLDY    51  47  86 NW7       29.93F
EAU CLAIRE     CLEAR     52  47  83 CALM      29.97R
BLACK RVR FLS  FAIR      46  46 100 CALM      29.97R
MEDFORD        CLEAR     43  42  95 CALM      29.98S
WAUSAU         CLEAR     49  46  90 N5        29.97R
WIS RAPIDS     PTCLDY    52  45  77 NE5       29.97S
MARSHFIELD     PTCLDY    51  44  77 NE8       29.97S
RICE LAKE      PTCLDY    51  49  92 CALM      29.99F
$$

...NORTHEAST IOWA...


CITY           SKY/WX    TMP DP  RH WIND       PRES   REMARKS
DECORAH          N/A    N/A N/A N/A MISG        N/A
MASON CITY     PTCLDY    61  57  87 E6        29.96S
CHARLES CITY   CLEAR     59  59 100 NE6       29.96R
OELWEIN          N/A    N/A N/A N/A NE6       29.95R
$$

...ELSEWHERE IN IOWA...


CITY           SKY/WX    TMP DP  RH WIND       PRES   REMARKS
DES MOINES     CLOUDY    72  64  76 E7        29.91S
IOWA CITY      MOCLDY    67  60  78 NE5       29.92S
FORT DODGE     CLEAR     63  59  88 E6        29.94R
$$

...NORTHERN ILLINOIS...


CITY           SKY/WX    TMP DP  RH WIND       PRES   REMARKS
CHICAGO-OHARE  CLOUDY    57  51  80 N7        29.93R
CHICAGO-MIDWAY MOCLDY    61  53  75 NE7       29.92S
MOLINE         CLOUDY    68  62  81 CALM      29.90R
ROCKFORD       MOCLDY    59  55  87 E5        29.93S
PEORIA         MOCLDY    69  63  81 CALM      29.90R
$$

NOTE: "FAIR" INDICATES FEW OR NO CLOUDS BELOW 12,000 FEET WITH NO
SIGNIFICANT WEATHER AND/OR OBSTRUCTIONS TO VISIBILITY. WIND
SPEEDS ARE IN MILES-PER-HOUR.



USA.gov is the U.S. government's official web portal to all federal, state and local government web resources and services.